SIA362 WSSS-RJTT

Flight info

Callsign SIA362
Flight time 6h 8m
Altitude 39000
Route TOMAN3A TOMAN L625 AKMON/K0902F400 L625 ANOKI/N0485F400 L625 MEVIN/N0485F410 B462 KAZIK Y59 AZAMA Y57 SUKBO Y571 BILLY Y21 AKSEL
Aircraft A359/H-SDE2E3GHIJ3J4J5LM1ORWXY/LB1D1

Departure

Time 2026-05-04 23:27
Airport Singapore Changi Airport (WSSS)

Arrival

Time 2026-05-05 05:36
Airport Tokyo Haneda International Airport (RJTT)
Time Latitude Longitude Altitude Speed Heading
2026-05-04 23:09 1.35283 103.98411 34 ft 0 kts 112°
2026-05-04 23:11 1.35285 103.98406 35 ft 2 kts 112°
2026-05-04 23:11 1.35292 103.98391 35 ft 2 kts 113°
2026-05-04 23:11 1.35298 103.98376 33 ft 2 kts 114°
2026-05-04 23:11 1.35305 103.98361 32 ft 2 kts 115°
2026-05-04 23:12 1.35310 103.98351 32 ft 2 kts 116°
2026-05-04 23:12 1.35317 103.98336 31 ft 2 kts 120°
2026-05-04 23:12 1.35326 103.98322 33 ft 2 kts 130°
2026-05-04 23:12 1.35339 103.98312 33 ft 2 kts 159°
2026-05-04 23:13 1.35344 103.98310 31 ft 0 kts 163°
2026-05-04 23:18 1.35323 103.98312 31 ft 5 kts 179°
2026-05-04 23:18 1.35279 103.98298 35 ft 8 kts 201°
2026-05-04 23:18 1.35223 103.98275 36 ft 10 kts 202°
2026-05-04 23:18 1.35156 103.98244 36 ft 11 kts 215°
2026-05-04 23:19 1.35112 103.98177 36 ft 12 kts 242°
2026-05-04 23:19 1.35059 103.98110 37 ft 13 kts 212°
2026-05-04 23:19 1.34974 103.98071 37 ft 14 kts 203°
2026-05-04 23:19 1.34878 103.98030 37 ft 16 kts 203°
2026-05-04 23:20 1.34783 103.97989 37 ft 14 kts 202°
2026-05-04 23:20 1.34701 103.98010 37 ft 11 kts 113°
2026-05-04 23:20 1.34735 103.98072 37 ft 11 kts 47°
2026-05-04 23:20 1.34742 103.98145 36 ft 12 kts 111°
2026-05-04 23:21 1.34707 103.98228 36 ft 14 kts 112°
2026-05-04 23:21 1.34664 103.98327 33 ft 17 kts 113°
2026-05-04 23:21 1.34616 103.98440 33 ft 19 kts 113°
2026-05-04 23:21 1.34560 103.98570 31 ft 21 kts 113°
2026-05-04 23:22 1.34499 103.98713 30 ft 23 kts 113°
2026-05-04 23:22 1.34438 103.98855 29 ft 18 kts 113°
2026-05-04 23:22 1.34363 103.98924 29 ft 15 kts 184°
2026-05-04 23:22 1.34260 103.98884 29 ft 17 kts 203°
2026-05-04 23:23 1.34148 103.98837 29 ft 18 kts 202°
2026-05-04 23:23 1.34026 103.98786 28 ft 20 kts 203°
2026-05-04 23:23 1.33896 103.98731 28 ft 21 kts 202°
2026-05-04 23:23 1.33759 103.98673 28 ft 22 kts 203°
2026-05-04 23:24 1.33614 103.98611 28 ft 23 kts 202°
2026-05-04 23:24 1.33465 103.98549 28 ft 24 kts 202°
2026-05-04 23:24 1.33309 103.98483 28 ft 25 kts 202°
2026-05-04 23:24 1.33148 103.98416 28 ft 25 kts 203°
2026-05-04 23:25 1.33020 103.98362 28 ft 16 kts 199°
2026-05-04 23:25 1.32953 103.98374 28 ft 0 kts 137°
2026-05-04 23:25 1.32949 103.98379 28 ft 4 kts 130°
2026-05-04 23:26 1.32920 103.98429 28 ft 12 kts 115°
2026-05-04 23:26 1.32912 103.98507 28 ft 10 kts 63°
2026-05-04 23:26 1.32961 103.98536 28 ft 9 kts 24°
2026-05-04 23:26 1.33189 103.98632 28 ft 69 kts 22°
2026-05-04 23:27 1.33828 103.98899 27 ft 128 kts 22°
2026-05-04 23:27 1.34813 103.99312 70 ft 174 kts 22°
2026-05-04 23:27 1.35889 103.99752 778 ft 167 kts 22°
2026-05-04 23:27 1.36972 104.00177 1382 ft 160 kts 21°
2026-05-04 23:28 1.37996 104.00586 1467 ft 166 kts 24°
2026-05-04 23:28 1.39121 104.01087 1675 ft 188 kts 25°
2026-05-04 23:28 1.40393 104.01648 1936 ft 210 kts 24°
2026-05-04 23:28 1.41824 104.02266 2174 ft 236 kts 23°
2026-05-04 23:29 1.43406 104.02940 2560 ft 255 kts 23°
2026-05-04 23:29 1.45060 104.03646 3176 ft 262 kts 23°
2026-05-04 23:29 1.46630 104.04601 3832 ft 267 kts 42°
2026-05-04 23:29 1.47674 104.06125 4521 ft 270 kts 70°
2026-05-04 23:30 1.47899 104.07980 5189 ft 273 kts 97°
2026-05-04 23:30 1.47336 104.09766 5874 ft 275 kts 114°
2026-05-04 23:30 1.46495 104.11523 6561 ft 278 kts 116°
2026-05-04 23:30 1.45643 104.13274 7221 ft 281 kts 116°
2026-05-04 23:31 1.44807 104.15024 7925 ft 284 kts 115°
2026-05-04 23:31 1.43957 104.16822 8657 ft 287 kts 115°
2026-05-04 23:31 1.43106 104.18643 9393 ft 290 kts 115°
2026-05-04 23:31 1.42253 104.20483 10093 ft 294 kts 115°
2026-05-04 23:32 1.41373 104.22378 10501 ft 308 kts 115°
2026-05-04 23:32 1.40445 104.24380 10806 ft 325 kts 115°
2026-05-04 23:32 1.39470 104.26486 11116 ft 340 kts 115°
2026-05-04 23:32 1.38456 104.28678 11409 ft 354 kts 115°
2026-05-04 23:33 1.37401 104.30957 11702 ft 367 kts 115°
2026-05-04 23:33 1.36319 104.33297 12084 ft 375 kts 115°
2026-05-04 23:33 1.35217 104.35678 12567 ft 379 kts 114°
2026-05-04 23:33 1.34145 104.38054 13078 ft 382 kts 112°
2026-05-04 23:34 1.33331 104.40628 13569 ft 385 kts 101°
2026-05-04 23:34 1.33046 104.43250 14028 ft 387 kts 91°
2026-05-04 23:34 1.33078 104.45949 14463 ft 390 kts 88°
2026-05-04 23:34 1.33161 104.48672 14891 ft 392 kts 88°
2026-05-04 23:35 1.33242 104.51415 15337 ft 395 kts 88°
2026-05-04 23:35 1.33317 104.54161 15778 ft 397 kts 88°
2026-05-04 23:35 1.33388 104.56925 16203 ft 399 kts 88°
2026-05-04 23:35 1.33457 104.59714 16632 ft 402 kts 89°
2026-05-04 23:36 1.33526 104.62517 17068 ft 405 kts 89°
2026-05-04 23:36 1.33594 104.65333 17487 ft 407 kts 89°
2026-05-04 23:36 1.33663 104.68175 17911 ft 409 kts 89°
2026-05-04 23:36 1.33731 104.71031 18298 ft 412 kts 89°
2026-05-04 23:37 1.33799 104.73866 18650 ft 414 kts 89°
2026-05-04 23:37 1.33869 104.76752 19011 ft 416 kts 89°
2026-05-04 23:37 1.33938 104.79655 19361 ft 419 kts 89°
2026-05-04 23:37 1.34008 104.82572 19725 ft 421 kts 89°
2026-05-04 23:38 1.34078 104.85505 20073 ft 423 kts 89°
2026-05-04 23:38 1.34149 104.88448 20430 ft 425 kts 89°
2026-05-04 23:38 1.34217 104.91407 20777 ft 427 kts 89°
2026-05-04 23:38 1.34288 104.94383 21142 ft 429 kts 89°
2026-05-04 23:39 1.34361 104.97374 21492 ft 431 kts 89°
2026-05-04 23:39 1.34434 105.00378 21842 ft 434 kts 89°
2026-05-04 23:39 1.34507 105.03398 22199 ft 436 kts 89°
2026-05-04 23:39 1.34580 105.06433 22555 ft 438 kts 89°
2026-05-04 23:40 1.34654 105.09486 22912 ft 441 kts 89°
2026-05-04 23:40 1.34727 105.12558 23274 ft 443 kts 89°
2026-05-04 23:40 1.34801 105.15646 23597 ft 446 kts 89°
2026-05-04 23:40 1.34876 105.18753 23889 ft 448 kts 89°
2026-05-04 23:41 1.34950 105.21875 24186 ft 450 kts 89°
2026-05-04 23:41 1.35025 105.25005 24487 ft 452 kts 89°
2026-05-04 23:41 1.35101 105.28154 24803 ft 455 kts 89°
2026-05-04 23:41 1.35176 105.31322 25126 ft 457 kts 89°
2026-05-04 23:42 1.35252 105.34500 25466 ft 459 kts 89°
2026-05-04 23:42 1.35328 105.37656 25801 ft 461 kts 89°
2026-05-04 23:42 1.35404 105.40875 26149 ft 464 kts 89°
2026-05-04 23:42 1.35481 105.44109 26517 ft 466 kts 89°
2026-05-04 23:43 1.35559 105.47358 26898 ft 469 kts 89°
2026-05-04 23:43 1.35637 105.50629 27271 ft 471 kts 89°
2026-05-04 23:43 1.35715 105.53911 27638 ft 474 kts 89°
2026-05-04 23:43 1.35793 105.57222 28020 ft 477 kts 89°
2026-05-04 23:44 1.35873 105.60548 28391 ft 480 kts 89°
2026-05-04 23:44 1.35952 105.63891 28753 ft 482 kts 89°
2026-05-04 23:44 1.36067 105.67254 29099 ft 485 kts 86°
2026-05-04 23:44 1.36533 105.70602 29440 ft 488 kts 78°
2026-05-04 23:45 1.37526 105.73854 29764 ft 491 kts 69°
2026-05-04 23:45 1.39025 105.76888 30039 ft 495 kts 59°
2026-05-04 23:45 1.41038 105.79695 30291 ft 499 kts 50°
2026-05-04 23:45 1.43504 105.82156 30545 ft 503 kts 41°
2026-05-04 23:46 1.46357 105.84189 30797 ft 506 kts 31°
2026-05-04 23:46 1.49506 105.85783 31055 ft 509 kts 26°
2026-05-04 23:46 1.52699 105.87332 31309 ft 510 kts 27°
2026-05-04 23:46 1.55875 105.88924 31676 ft 509 kts 28°
2026-05-04 23:47 1.59021 105.90533 32059 ft 507 kts 28°
2026-05-04 23:47 1.62159 105.92156 32420 ft 506 kts 28°
2026-05-04 23:47 1.65285 105.93780 32780 ft 505 kts 28°
2026-05-04 23:47 1.68404 105.95402 33142 ft 504 kts 28°
2026-05-04 23:48 1.71517 105.97019 33513 ft 503 kts 28°
2026-05-04 23:48 1.74621 105.98630 33861 ft 502 kts 28°
2026-05-04 23:48 1.77721 106.00236 34143 ft 502 kts 28°
2026-05-04 23:48 1.80773 106.01817 34418 ft 501 kts 28°
2026-05-04 23:49 1.83866 106.03419 34708 ft 500 kts 28°
2026-05-04 23:49 1.86961 106.05022 34981 ft 500 kts 28°
2026-05-04 23:49 1.90047 106.06620 35249 ft 499 kts 28°
2026-05-04 23:49 1.93122 106.08214 35531 ft 498 kts 28°
2026-05-04 23:50 1.96198 106.09810 35804 ft 497 kts 28°
2026-05-04 23:50 1.99270 106.11398 36066 ft 497 kts 28°
2026-05-04 23:50 2.02345 106.12985 36330 ft 496 kts 28°
2026-05-04 23:50 2.05409 106.14568 36591 ft 496 kts 28°
2026-05-04 23:51 2.08468 106.16149 36855 ft 495 kts 28°
2026-05-04 23:51 2.11525 106.17729 37119 ft 494 kts 28°
2026-05-04 23:51 2.14575 106.19306 37371 ft 493 kts 28°
2026-05-04 23:51 2.17623 106.20883 37617 ft 492 kts 28°
2026-05-04 23:52 2.20664 106.22457 37879 ft 491 kts 28°
2026-05-04 23:52 2.23699 106.24027 38117 ft 490 kts 28°
2026-05-04 23:52 2.26730 106.25596 38342 ft 490 kts 28°
2026-05-04 23:52 2.29758 106.27162 38558 ft 489 kts 28°
2026-05-04 23:53 2.32774 106.28723 38758 ft 488 kts 28°
2026-05-04 23:53 2.35797 106.30288 38861 ft 489 kts 28°
2026-05-04 23:53 2.41802 106.33396 38880 ft 489 kts 28°
2026-05-04 23:54 2.47836 106.36519 38880 ft 488 kts 28°
2026-05-04 23:54 2.53875 106.39646 38880 ft 488 kts 28°
2026-05-04 23:55 2.59904 106.42774 38880 ft 488 kts 28°
2026-05-04 23:56 2.68959 106.47461 38878 ft 488 kts 28°
2026-05-04 23:56 2.74992 106.50584 38878 ft 488 kts 28°
2026-05-04 23:57 2.81016 106.53710 38880 ft 488 kts 28°
2026-05-04 23:57 2.87002 106.56810 38879 ft 487 kts 28°
2026-05-04 23:58 2.93031 106.59929 38878 ft 487 kts 28°
2026-05-04 23:58 2.99058 106.63042 38884 ft 487 kts 28°
2026-05-04 23:59 3.04069 106.65634 38881 ft 488 kts 28°
2026-05-04 23:59 3.10103 106.68758 38879 ft 488 kts 28°
2026-05-05 00:00 3.16138 106.71882 38880 ft 488 kts 28°
2026-05-05 00:00 3.22173 106.75007 38878 ft 488 kts 28°
2026-05-05 00:01 3.28174 106.78115 38878 ft 488 kts 28°
2026-05-05 00:01 3.34212 106.81243 38876 ft 488 kts 28°
2026-05-05 00:02 3.40245 106.84368 38878 ft 488 kts 28°
2026-05-05 00:02 3.46271 106.87490 38876 ft 488 kts 28°
2026-05-05 00:03 3.52312 106.90621 38877 ft 488 kts 28°
2026-05-05 00:03 3.58126 106.94040 38876 ft 487 kts 35°
2026-05-05 00:04 3.63706 106.97905 38874 ft 487 kts 36°
2026-05-05 00:04 3.69237 107.01826 38876 ft 487 kts 36°
2026-05-05 00:05 3.74774 107.05755 38877 ft 487 kts 36°
2026-05-05 00:05 3.80316 107.09675 38878 ft 487 kts 36°
2026-05-05 00:06 3.85818 107.13562 38873 ft 487 kts 36°
2026-05-05 00:06 3.91367 107.17481 38875 ft 487 kts 36°
2026-05-05 00:07 3.96913 107.21399 38874 ft 487 kts 36°
2026-05-05 00:07 4.02457 107.25317 38877 ft 487 kts 36°
2026-05-05 00:08 4.07992 107.29230 38877 ft 487 kts 36°
2026-05-05 00:08 4.13532 107.33147 38873 ft 487 kts 36°
2026-05-05 00:09 4.19072 107.37065 38874 ft 487 kts 36°
2026-05-05 00:09 4.24577 107.40958 38872 ft 487 kts 36°
2026-05-05 00:10 4.30112 107.44872 38873 ft 487 kts 36°
2026-05-05 00:10 4.35649 107.48790 38872 ft 487 kts 36°
2026-05-05 00:11 4.41200 107.52718 38873 ft 487 kts 36°
2026-05-05 00:11 4.46729 107.56631 38872 ft 487 kts 36°
2026-05-05 00:12 4.52263 107.60549 38875 ft 486 kts 36°
2026-05-05 00:12 4.57758 107.64439 38872 ft 486 kts 36°
2026-05-05 00:13 4.63291 107.68357 38874 ft 486 kts 36°
2026-05-05 00:13 4.68821 107.72274 38876 ft 486 kts 36°
2026-05-05 00:14 4.74347 107.76189 38877 ft 487 kts 36°
2026-05-05 00:14 4.79852 107.80090 38875 ft 487 kts 36°
2026-05-05 00:15 4.85382 107.84009 38875 ft 486 kts 36°
2026-05-05 00:15 4.90911 107.87928 38872 ft 486 kts 36°
2026-05-05 00:16 4.96437 107.91847 38876 ft 486 kts 36°
2026-05-05 00:16 5.01967 107.95764 38873 ft 486 kts 36°
2026-05-05 00:17 5.07515 107.99656 38964 ft 486 kts 36°
2026-05-05 00:17 5.10276 108.01590 39165 ft 484 kts 36°
2026-05-05 00:17 5.13038 108.03525 39392 ft 482 kts 36°
2026-05-05 00:17 5.15778 108.05448 39598 ft 480 kts 36°
2026-05-05 00:18 5.18513 108.07368 39805 ft 479 kts 36°
2026-05-05 00:18 5.23987 108.11215 39877 ft 481 kts 36°
2026-05-05 00:19 5.29458 108.15062 39879 ft 480 kts 36°
2026-05-05 00:19 5.34923 108.18905 39876 ft 479 kts 36°
2026-05-05 00:20 5.40379 108.22742 39876 ft 479 kts 36°
2026-05-05 00:20 5.45800 108.26556 39877 ft 478 kts 36°
2026-05-05 00:21 5.51249 108.30389 39875 ft 478 kts 35°
2026-05-05 00:21 5.56684 108.34214 39877 ft 477 kts 35°
2026-05-05 00:22 5.62122 108.38042 39878 ft 476 kts 35°
2026-05-05 00:22 5.67550 108.41864 39875 ft 476 kts 35°
2026-05-05 00:23 5.72973 108.45683 39873 ft 475 kts 35°
2026-05-05 00:23 5.78355 108.49474 39880 ft 475 kts 35°
2026-05-05 00:24 5.83775 108.53293 39877 ft 475 kts 35°
2026-05-05 00:24 5.89184 108.57106 39875 ft 475 kts 35°
2026-05-05 00:25 5.94597 108.60921 39875 ft 475 kts 35°
2026-05-05 00:25 6.00005 108.64735 39875 ft 475 kts 35°
2026-05-05 00:26 6.05420 108.68553 39876 ft 474 kts 35°
2026-05-05 00:26 6.10827 108.72368 39877 ft 474 kts 35°
2026-05-05 00:27 6.16204 108.76162 39879 ft 474 kts 35°
2026-05-05 00:27 6.21598 108.79969 39877 ft 474 kts 35°
2026-05-05 00:28 6.26999 108.83782 39878 ft 474 kts 35°
2026-05-05 00:28 6.32397 108.87594 39877 ft 474 kts 35°
2026-05-05 00:29 6.37807 108.91415 39882 ft 474 kts 35°
2026-05-05 00:29 6.43180 108.95212 39880 ft 474 kts 35°
2026-05-05 00:30 6.48581 108.99028 39884 ft 474 kts 35°
2026-05-05 00:30 6.53986 109.02849 39883 ft 475 kts 35°
2026-05-05 00:31 6.59393 109.06672 39884 ft 475 kts 35°
2026-05-05 00:31 6.64799 109.10496 39885 ft 475 kts 36°
2026-05-05 00:32 6.70205 109.14321 39882 ft 475 kts 36°
2026-05-05 00:32 6.75610 109.18145 39888 ft 475 kts 36°
2026-05-05 00:33 6.81023 109.21977 39888 ft 475 kts 36°
2026-05-05 00:33 6.86396 109.25782 39884 ft 475 kts 36°
2026-05-05 00:34 6.91807 109.29614 39887 ft 476 kts 36°
2026-05-05 00:34 6.97219 109.33449 39888 ft 476 kts 36°
2026-05-05 00:35 7.02642 109.37292 39893 ft 476 kts 36°
2026-05-05 00:35 7.08071 109.41140 39888 ft 476 kts 36°
2026-05-05 00:36 7.13493 109.44985 39889 ft 477 kts 36°
2026-05-05 00:36 7.18888 109.48812 39892 ft 477 kts 36°
2026-05-05 00:37 7.24317 109.52665 39890 ft 477 kts 36°
2026-05-05 00:37 7.29751 109.56521 39890 ft 477 kts 36°
2026-05-05 00:38 7.35179 109.60375 39888 ft 477 kts 36°
2026-05-05 00:38 7.40608 109.64230 39890 ft 478 kts 36°
2026-05-05 00:39 7.46045 109.68093 39892 ft 478 kts 36°
2026-05-05 00:39 7.51478 109.71953 39895 ft 478 kts 36°
2026-05-05 00:40 7.56913 109.75817 39892 ft 478 kts 36°
2026-05-05 00:40 7.62327 109.79667 39892 ft 479 kts 36°
2026-05-05 00:41 7.67764 109.83534 39890 ft 479 kts 36°
2026-05-05 00:41 7.73210 109.87409 39894 ft 478 kts 36°
2026-05-05 00:42 7.78653 109.91283 39894 ft 478 kts 36°
2026-05-05 00:42 7.84093 109.95157 39896 ft 478 kts 35°
2026-05-05 00:43 7.89490 109.99000 39900 ft 478 kts 35°
2026-05-05 00:43 7.94918 110.02868 39893 ft 477 kts 35°
2026-05-05 00:44 8.00345 110.06735 39893 ft 477 kts 35°
2026-05-05 00:44 8.05775 110.10606 39898 ft 478 kts 35°
2026-05-05 00:45 8.11207 110.14480 39895 ft 478 kts 35°
2026-05-05 00:45 8.16635 110.18353 39900 ft 477 kts 35°
2026-05-05 00:46 8.22047 110.22215 39896 ft 477 kts 35°
2026-05-05 00:46 8.27443 110.26091 39896 ft 477 kts 36°
2026-05-05 00:47 8.31977 110.29362 39897 ft 477 kts 36°
2026-05-05 00:47 8.37342 110.33232 39897 ft 477 kts 36°
2026-05-05 00:48 8.42742 110.37125 39901 ft 477 kts 36°
2026-05-05 00:48 8.48147 110.41022 39897 ft 477 kts 36°
2026-05-05 00:49 8.53553 110.44921 39895 ft 477 kts 36°
2026-05-05 00:49 8.58967 110.48826 39900 ft 477 kts 36°
2026-05-05 00:50 8.64335 110.52701 39900 ft 477 kts 36°
2026-05-05 00:50 8.69737 110.56601 39900 ft 477 kts 36°
2026-05-05 00:51 8.75138 110.60502 39900 ft 477 kts 36°
2026-05-05 00:51 8.80537 110.64402 39904 ft 477 kts 36°
2026-05-05 00:52 8.85932 110.68302 39902 ft 477 kts 36°
2026-05-05 00:52 8.91322 110.72199 39906 ft 476 kts 36°
2026-05-05 00:53 8.96719 110.76103 39905 ft 476 kts 36°
2026-05-05 00:53 9.02115 110.80006 39906 ft 477 kts 36°
2026-05-05 00:54 9.07507 110.83909 39905 ft 476 kts 36°
2026-05-05 00:54 9.12869 110.87792 39907 ft 477 kts 36°
2026-05-05 00:55 9.18276 110.91709 39908 ft 477 kts 36°
2026-05-05 00:55 9.23674 110.95621 39907 ft 477 kts 36°
2026-05-05 00:56 9.29072 110.99534 39905 ft 477 kts 36°
2026-05-05 00:56 9.34431 111.03420 39908 ft 477 kts 36°
2026-05-05 00:57 9.39832 111.07338 39908 ft 477 kts 36°
2026-05-05 00:57 9.45215 111.11246 39909 ft 477 kts 36°
2026-05-05 00:58 9.50619 111.15169 39908 ft 477 kts 36°
2026-05-05 00:58 9.56021 111.19095 39906 ft 478 kts 36°
2026-05-05 00:59 9.61428 111.23028 39909 ft 479 kts 36°
2026-05-05 00:59 9.66855 111.26970 39912 ft 480 kts 36°
2026-05-05 01:00 9.72253 111.30893 39908 ft 481 kts 36°
2026-05-05 01:00 9.77689 111.34847 39908 ft 481 kts 36°
2026-05-05 01:01 9.83138 111.38813 39911 ft 482 kts 36°
2026-05-05 01:01 9.88594 111.42786 39907 ft 483 kts 36°
2026-05-05 01:02 9.94052 111.46762 39908 ft 484 kts 36°
2026-05-05 01:02 9.99525 111.50751 39913 ft 485 kts 36°
2026-05-05 01:03 10.05018 111.54756 39913 ft 486 kts 36°
2026-05-05 01:03 10.10473 111.58735 39911 ft 487 kts 36°
2026-05-05 01:04 10.15981 111.62755 39911 ft 487 kts 36°
2026-05-05 01:04 10.24240 111.68785 39916 ft 488 kts 35°
2026-05-05 01:05 10.29762 111.72818 39916 ft 488 kts 35°
2026-05-05 01:05 10.35283 111.76853 39910 ft 489 kts 35°
2026-05-05 01:06 10.40775 111.80868 39913 ft 489 kts 35°
2026-05-05 01:06 10.46306 111.84914 39911 ft 489 kts 35°
2026-05-05 01:07 10.51826 111.88954 39913 ft 490 kts 35°
2026-05-05 01:07 10.57365 111.93009 39913 ft 490 kts 35°
2026-05-05 01:08 10.62895 111.97060 39910 ft 490 kts 35°
2026-05-05 01:08 10.68410 112.01102 39912 ft 491 kts 35°
2026-05-05 01:09 10.73958 112.05169 39912 ft 491 kts 35°
2026-05-05 01:09 10.79507 112.09240 39911 ft 492 kts 35°
2026-05-05 01:10 10.85072 112.13324 39910 ft 493 kts 35°
2026-05-05 01:10 10.90642 112.17413 39910 ft 494 kts 35°
2026-05-05 01:11 10.96219 112.21512 39910 ft 494 kts 35°
2026-05-05 01:11 11.01798 112.25598 39910 ft 495 kts 34°
2026-05-05 01:12 11.07396 112.29683 39914 ft 495 kts 34°
2026-05-05 01:12 11.12990 112.33772 39917 ft 495 kts 34°
2026-05-05 01:13 11.18550 112.37843 39917 ft 495 kts 34°
2026-05-05 01:13 11.24145 112.41940 39918 ft 495 kts 34°
2026-05-05 01:14 11.29739 112.46039 39916 ft 495 kts 34°
2026-05-05 01:14 11.35333 112.50142 39921 ft 495 kts 34°
2026-05-05 01:15 11.40927 112.54246 39914 ft 494 kts 34°
2026-05-05 01:15 11.46474 112.58316 39916 ft 494 kts 34°
2026-05-05 01:16 11.52052 112.62427 39918 ft 494 kts 34°
2026-05-05 01:16 11.57631 112.66536 39917 ft 494 kts 34°
2026-05-05 01:17 11.63205 112.70642 39915 ft 494 kts 34°
2026-05-05 01:17 11.68747 112.74729 39918 ft 494 kts 34°
2026-05-05 01:18 11.74309 112.78833 39917 ft 493 kts 34°
2026-05-05 01:18 11.79875 112.82941 39916 ft 493 kts 34°
2026-05-05 01:19 11.85437 112.87051 39916 ft 493 kts 34°
2026-05-05 01:19 11.90997 112.91160 39920 ft 492 kts 34°
2026-05-05 01:20 11.96549 112.95264 39917 ft 492 kts 34°
2026-05-05 01:20 12.02095 112.99367 39917 ft 492 kts 34°
2026-05-05 01:21 12.07608 113.03446 39920 ft 492 kts 34°
2026-05-05 01:21 12.13161 113.07559 39920 ft 493 kts 34°
2026-05-05 01:22 12.18711 113.11672 39920 ft 492 kts 34°
2026-05-05 01:22 12.24261 113.15786 39919 ft 493 kts 34°
2026-05-05 01:23 12.29808 113.19901 39923 ft 492 kts 34°
2026-05-05 01:23 12.35351 113.24016 39924 ft 493 kts 34°
2026-05-05 01:24 12.40899 113.28139 39920 ft 493 kts 34°
2026-05-05 01:24 12.46459 113.32256 39923 ft 493 kts 34°
2026-05-05 01:25 12.52015 113.36371 39920 ft 493 kts 34°
2026-05-05 01:25 12.57573 113.40494 39922 ft 494 kts 34°
2026-05-05 01:26 12.63135 113.44624 39922 ft 494 kts 34°
2026-05-05 01:26 12.68698 113.48757 39924 ft 494 kts 34°
2026-05-05 01:27 12.74225 113.52867 39923 ft 494 kts 34°
2026-05-05 01:27 12.79797 113.57011 39922 ft 494 kts 34°
2026-05-05 01:28 12.85362 113.61152 39922 ft 495 kts 34°
2026-05-05 01:28 12.90929 113.65298 39927 ft 495 kts 34°
2026-05-05 01:29 12.96501 113.69449 39921 ft 495 kts 34°
2026-05-05 01:29 13.02075 113.73604 39923 ft 495 kts 34°
2026-05-05 01:30 13.07654 113.77765 39923 ft 495 kts 34°
2026-05-05 01:30 13.13226 113.81924 39925 ft 495 kts 34°
2026-05-05 01:31 13.18755 113.86053 39925 ft 495 kts 34°
2026-05-05 01:31 13.24337 113.90223 39925 ft 495 kts 34°
2026-05-05 01:32 13.29907 113.94387 39927 ft 495 kts 34°
2026-05-05 01:32 13.35484 113.98560 39925 ft 496 kts 34°
2026-05-05 01:33 13.40119 114.02028 39927 ft 496 kts 34°
2026-05-05 01:33 13.45695 114.06204 39926 ft 496 kts 34°
2026-05-05 01:34 13.52170 114.11056 39931 ft 496 kts 34°
2026-05-05 01:34 13.56838 114.14556 39930 ft 496 kts 34°
2026-05-05 01:35 13.62376 114.18710 39928 ft 496 kts 34°
2026-05-05 01:35 13.67946 114.22891 39928 ft 496 kts 34°
2026-05-05 01:36 13.73518 114.27076 39927 ft 496 kts 34°
2026-05-05 01:36 13.79092 114.31264 39925 ft 496 kts 34°
2026-05-05 01:37 13.84661 114.35452 39927 ft 496 kts 34°
2026-05-05 01:37 13.90238 114.39649 39929 ft 496 kts 34°
2026-05-05 01:38 13.95813 114.43872 39924 ft 497 kts 36°
2026-05-05 01:38 14.00810 114.48747 39928 ft 499 kts 44°
2026-05-05 01:39 14.05608 114.53930 39928 ft 500 kts 45°
2026-05-05 01:39 14.10369 114.59155 39925 ft 500 kts 45°
2026-05-05 01:40 14.15143 114.64384 39930 ft 500 kts 45°
2026-05-05 01:40 14.19922 114.69604 39932 ft 501 kts 45°
2026-05-05 01:41 14.24708 114.74826 39927 ft 501 kts 45°
2026-05-05 01:41 14.29497 114.80056 39929 ft 501 kts 45°
2026-05-05 01:42 14.34282 114.85286 39930 ft 501 kts 45°
2026-05-05 01:42 14.39040 114.90491 39930 ft 501 kts 45°
2026-05-05 01:43 14.43824 114.95726 39933 ft 502 kts 45°
2026-05-05 01:43 14.48610 115.00968 39933 ft 502 kts 45°
2026-05-05 01:44 14.53400 115.06219 39931 ft 502 kts 45°
2026-05-05 01:44 14.58190 115.11472 39934 ft 502 kts 45°
2026-05-05 01:45 14.62988 115.16738 39933 ft 502 kts 45°
2026-05-05 01:45 14.67784 115.22005 39931 ft 503 kts 45°
2026-05-05 01:46 14.72541 115.27232 39931 ft 503 kts 45°
2026-05-05 01:46 14.77335 115.32504 39934 ft 503 kts 45°
2026-05-05 01:47 14.82121 115.37771 39932 ft 503 kts 45°
2026-05-05 01:47 14.86912 115.43048 39933 ft 503 kts 45°
2026-05-05 01:48 14.91704 115.48328 39922 ft 503 kts 45°
2026-05-05 01:48 14.96500 115.53617 39937 ft 504 kts 45°
2026-05-05 01:49 15.01264 115.58875 39936 ft 504 kts 45°
2026-05-05 01:49 15.06060 115.64171 39918 ft 504 kts 45°
2026-05-05 01:50 15.10852 115.69467 39937 ft 504 kts 45°
2026-05-05 01:50 15.15657 115.74781 39936 ft 504 kts 45°
2026-05-05 01:51 15.20452 115.80088 39922 ft 505 kts 45°
2026-05-05 01:51 15.25250 115.85401 39924 ft 505 kts 45°
2026-05-05 01:52 15.30045 115.90715 39940 ft 505 kts 45°
2026-05-05 01:52 15.34847 115.96041 39931 ft 505 kts 45°
2026-05-05 01:53 15.39642 116.01364 39928 ft 506 kts 45°
2026-05-05 01:53 15.44417 116.06667 39933 ft 506 kts 45°
2026-05-05 01:54 15.49215 116.12000 39944 ft 506 kts 45°
2026-05-05 01:54 15.54027 116.17352 39931 ft 506 kts 45°
2026-05-05 01:55 15.58829 116.22698 39929 ft 506 kts 45°
2026-05-05 01:55 15.63632 116.28048 39930 ft 507 kts 45°
2026-05-05 01:56 15.68434 116.33401 39930 ft 507 kts 45°
2026-05-05 01:56 15.73243 116.38766 39934 ft 507 kts 45°
2026-05-05 01:57 15.78045 116.44127 39932 ft 507 kts 45°
2026-05-05 01:57 15.82850 116.49495 39933 ft 507 kts 45°
2026-05-05 01:58 15.87651 116.54864 39931 ft 507 kts 45°
2026-05-05 01:58 15.92430 116.60211 39934 ft 508 kts 45°
2026-05-05 01:59 15.97243 116.65600 39934 ft 508 kts 45°
2026-05-05 01:59 16.02049 116.70986 39933 ft 508 kts 45°
2026-05-05 02:00 16.06858 116.76380 39934 ft 508 kts 45°
2026-05-05 02:00 16.11669 116.81779 39932 ft 508 kts 45°
2026-05-05 02:01 16.16482 116.87185 39935 ft 509 kts 45°
2026-05-05 02:01 16.21289 116.92589 39932 ft 509 kts 45°
2026-05-05 02:02 16.26102 116.98003 39933 ft 509 kts 45°
2026-05-05 02:02 16.30913 117.03419 39933 ft 509 kts 45°
2026-05-05 02:03 16.35692 117.08804 39935 ft 509 kts 45°
2026-05-05 02:03 16.40503 117.14229 39931 ft 510 kts 45°
2026-05-05 02:04 16.45315 117.19659 39930 ft 510 kts 45°
2026-05-05 02:04 16.50127 117.25098 39937 ft 510 kts 45°
2026-05-05 02:05 16.54938 117.30535 39939 ft 510 kts 45°
2026-05-05 02:05 16.59756 117.35984 39931 ft 510 kts 45°
2026-05-05 02:06 16.64565 117.41428 39930 ft 511 kts 45°
2026-05-05 02:06 16.69383 117.46887 39929 ft 511 kts 45°
2026-05-05 02:07 16.74197 117.52346 39934 ft 511 kts 45°
2026-05-05 02:07 16.78976 117.57770 39931 ft 511 kts 45°
2026-05-05 02:08 16.83819 117.63271 39931 ft 511 kts 45°
2026-05-05 02:08 16.88607 117.68714 39931 ft 512 kts 45°
2026-05-05 02:09 16.93424 117.74194 39936 ft 512 kts 45°
2026-05-05 02:09 16.98245 117.79683 39927 ft 512 kts 45°
2026-05-05 02:10 17.03066 117.85176 39931 ft 512 kts 45°
2026-05-05 02:10 17.07883 117.90671 39930 ft 512 kts 45°
2026-05-05 02:11 17.12673 117.96138 39928 ft 513 kts 45°
2026-05-05 02:11 17.17495 118.01646 39929 ft 513 kts 45°
2026-05-05 02:12 17.24726 118.09915 39927 ft 513 kts 45°
2026-05-05 02:13 17.29548 118.15435 39930 ft 514 kts 45°
2026-05-05 02:13 17.34375 118.20966 39927 ft 514 kts 45°
2026-05-05 02:14 17.39203 118.26502 39926 ft 514 kts 45°
2026-05-05 02:14 17.43996 118.32002 39925 ft 515 kts 45°
2026-05-05 02:15 17.48825 118.37548 39930 ft 515 kts 45°
2026-05-05 02:15 17.53652 118.43097 39924 ft 515 kts 45°
2026-05-05 02:16 17.58475 118.48646 39926 ft 515 kts 45°
2026-05-05 02:16 17.63305 118.54208 39925 ft 515 kts 45°
2026-05-05 02:17 17.68130 118.59769 39925 ft 515 kts 45°
2026-05-05 02:17 17.72960 118.65341 39932 ft 516 kts 45°
2026-05-05 02:18 17.77757 118.70879 39927 ft 516 kts 45°
2026-05-05 02:18 17.82586 118.76458 39929 ft 516 kts 45°
2026-05-05 02:19 17.87416 118.82044 39927 ft 516 kts 45°
2026-05-05 02:19 17.91436 118.86697 39932 ft 517 kts 45°
2026-05-05 02:20 17.96264 118.92290 39938 ft 517 kts 45°
2026-05-05 02:20 18.01100 118.97898 39934 ft 517 kts 45°
2026-05-05 02:21 18.05932 119.03505 39929 ft 517 kts 45°
2026-05-05 02:21 18.10741 119.09090 39936 ft 518 kts 45°
2026-05-05 02:22 18.15570 119.14705 39937 ft 518 kts 45°
2026-05-05 02:22 18.20402 119.20327 39935 ft 518 kts 45°
2026-05-05 02:23 18.25233 119.25953 39939 ft 518 kts 45°
2026-05-05 02:23 18.30071 119.31593 39932 ft 518 kts 45°
2026-05-05 02:24 18.34900 119.37227 39936 ft 518 kts 45°
2026-05-05 02:24 18.39708 119.42842 39934 ft 519 kts 45°
2026-05-05 02:25 18.44536 119.48485 39940 ft 519 kts 45°
2026-05-05 02:25 18.49366 119.54135 39931 ft 519 kts 45°
2026-05-05 02:26 18.54196 119.59792 39933 ft 519 kts 45°
2026-05-05 02:26 18.59026 119.65453 39939 ft 519 kts 45°
2026-05-05 02:27 18.63847 119.71114 39937 ft 519 kts 45°
2026-05-05 02:27 18.68678 119.76784 39926 ft 519 kts 45°
2026-05-05 02:28 18.73484 119.82430 39945 ft 519 kts 45°
2026-05-05 02:28 18.78312 119.88109 39946 ft 519 kts 45°
2026-05-05 02:29 18.83135 119.93788 39937 ft 520 kts 45°
2026-05-05 02:29 18.87964 119.99479 39936 ft 520 kts 45°
2026-05-05 02:30 18.92794 120.05177 39941 ft 520 kts 46°
2026-05-05 02:30 18.97618 120.10873 39943 ft 520 kts 46°
2026-05-05 02:31 19.02440 120.16571 39944 ft 520 kts 46°
2026-05-05 02:31 19.07270 120.22286 39945 ft 521 kts 46°
2026-05-05 02:32 19.12098 120.28004 39947 ft 521 kts 46°
2026-05-05 02:32 19.16921 120.33721 39948 ft 521 kts 46°
2026-05-05 02:33 19.21707 120.39398 39951 ft 521 kts 46°
2026-05-05 02:33 19.26537 120.45134 39954 ft 521 kts 46°
2026-05-05 02:34 19.31366 120.50875 39956 ft 521 kts 46°
2026-05-05 02:34 19.36139 120.56554 39955 ft 521 kts 46°
2026-05-05 02:35 19.40932 120.62263 39958 ft 521 kts 46°
2026-05-05 02:35 19.45753 120.68018 40115 ft 522 kts 46°
2026-05-05 02:35 19.48160 120.70890 40323 ft 521 kts 46°
2026-05-05 02:36 19.50566 120.73758 40524 ft 520 kts 46°
2026-05-05 02:36 19.52963 120.76619 40713 ft 519 kts 46°
2026-05-05 02:36 19.55360 120.79482 40880 ft 519 kts 46°
2026-05-05 02:37 19.60157 120.85217 40968 ft 518 kts 46°
2026-05-05 02:37 19.64940 120.90940 40966 ft 518 kts 46°
2026-05-05 02:38 19.69692 120.96633 40969 ft 518 kts 46°
2026-05-05 02:38 19.74475 121.02369 40967 ft 518 kts 46°
2026-05-05 02:39 19.79254 121.08106 40967 ft 518 kts 46°
2026-05-05 02:39 19.84039 121.13854 40969 ft 519 kts 46°
2026-05-05 02:40 19.88785 121.19563 40973 ft 519 kts 46°
2026-05-05 02:40 19.93563 121.25316 40974 ft 519 kts 46°
2026-05-05 02:41 19.98341 121.31073 40973 ft 519 kts 46°
2026-05-05 02:41 20.03120 121.36838 40977 ft 519 kts 46°
2026-05-05 02:42 20.07900 121.42610 40979 ft 520 kts 46°
2026-05-05 02:42 20.12675 121.48383 40976 ft 520 kts 46°
2026-05-05 02:43 20.17453 121.54164 40980 ft 520 kts 46°
2026-05-05 02:43 20.22229 121.59948 40982 ft 520 kts 46°
2026-05-05 02:44 20.27007 121.65741 40981 ft 520 kts 46°
2026-05-05 02:44 20.31754 121.71502 40982 ft 521 kts 46°
2026-05-05 02:45 20.36531 121.77306 40983 ft 521 kts 46°
2026-05-05 02:45 20.41314 121.83122 40986 ft 522 kts 46°
2026-05-05 02:46 20.46096 121.88943 40987 ft 522 kts 46°
2026-05-05 02:46 20.50882 121.94775 40985 ft 522 kts 46°
2026-05-05 02:47 20.55663 122.00608 40984 ft 522 kts 46°
2026-05-05 02:47 20.60443 122.06445 40986 ft 522 kts 46°
2026-05-05 02:48 20.65225 122.12290 40989 ft 522 kts 46°
2026-05-05 02:48 20.69978 122.18107 40986 ft 522 kts 46°
2026-05-05 02:49 20.74764 122.23969 40986 ft 523 kts 46°
2026-05-05 02:49 20.79547 122.29834 40990 ft 523 kts 46°
2026-05-05 02:50 20.84293 122.35660 40991 ft 523 kts 46°
2026-05-05 02:50 20.89071 122.41531 40994 ft 523 kts 46°
2026-05-05 02:51 20.93847 122.47405 40990 ft 523 kts 46°
2026-05-05 02:51 20.98659 122.53233 40987 ft 521 kts 41°
2026-05-05 02:52 21.04296 122.57991 40987 ft 514 kts 30°
2026-05-05 02:52 21.10270 122.62209 40994 ft 514 kts 28°
2026-05-05 02:53 21.16257 122.66326 40990 ft 514 kts 28°
2026-05-05 02:53 21.22268 122.70480 40994 ft 514 kts 29°
2026-05-05 02:54 21.28270 122.74656 40996 ft 514 kts 29°
2026-05-05 02:54 21.34263 122.78839 40996 ft 514 kts 29°
2026-05-05 02:55 21.40264 122.83032 40995 ft 514 kts 29°
2026-05-05 02:55 21.46269 122.87231 40997 ft 514 kts 29°
2026-05-05 02:56 21.52270 122.91431 40998 ft 514 kts 29°
2026-05-05 02:56 21.58270 122.95634 40999 ft 514 kts 29°
2026-05-05 02:57 21.64237 122.99818 40999 ft 515 kts 29°
2026-05-05 02:57 21.70232 123.04026 40999 ft 515 kts 29°
2026-05-05 02:58 21.76234 123.08243 41004 ft 515 kts 29°
2026-05-05 02:58 21.82252 123.12476 41000 ft 516 kts 29°
2026-05-05 02:59 21.88267 123.16711 41000 ft 516 kts 29°
2026-05-05 02:59 21.94282 123.20951 41006 ft 516 kts 29°
2026-05-05 03:00 22.00290 123.25189 41009 ft 517 kts 29°
2026-05-05 03:00 22.06306 123.29438 40997 ft 517 kts 29°
2026-05-05 03:01 22.12284 123.33665 41005 ft 517 kts 29°
2026-05-05 03:01 22.18299 123.37921 41008 ft 518 kts 29°
2026-05-05 03:02 22.24315 123.42183 41002 ft 518 kts 29°
2026-05-05 03:02 22.30349 123.46463 41012 ft 518 kts 29°
2026-05-05 03:03 22.36377 123.50742 41013 ft 518 kts 29°
2026-05-05 03:03 22.42397 123.55020 41008 ft 518 kts 29°
2026-05-05 03:04 22.48424 123.59308 41013 ft 518 kts 29°
2026-05-05 03:04 22.54418 123.63577 41008 ft 519 kts 29°
2026-05-05 03:05 22.60447 123.67875 41018 ft 519 kts 29°
2026-05-05 03:05 22.66476 123.72178 41016 ft 519 kts 29°
2026-05-05 03:06 22.72501 123.76483 41017 ft 519 kts 29°
2026-05-05 03:06 22.78532 123.80797 41017 ft 519 kts 29°
2026-05-05 03:07 22.84565 123.85123 41020 ft 519 kts 29°
2026-05-05 03:07 22.89584 123.88718 41020 ft 520 kts 29°
2026-05-05 03:08 22.95617 123.93043 41018 ft 520 kts 29°
2026-05-05 03:08 23.01661 123.97385 41021 ft 521 kts 29°
2026-05-05 03:09 23.07666 124.01792 41017 ft 521 kts 30°
2026-05-05 03:09 23.13661 124.06236 41018 ft 522 kts 30°
2026-05-05 03:10 23.19664 124.10682 41022 ft 522 kts 30°
2026-05-05 03:10 23.25666 124.15122 41020 ft 522 kts 30°
2026-05-05 03:11 23.31676 124.19569 41020 ft 522 kts 30°
2026-05-05 03:11 23.37197 124.24735 41027 ft 530 kts 43°
2026-05-05 03:12 23.42161 124.30721 41024 ft 533 kts 45°
2026-05-05 03:12 23.47022 124.36824 41023 ft 534 kts 45°
2026-05-05 03:13 23.51896 124.42949 41023 ft 534 kts 45°
2026-05-05 03:13 23.56737 124.49005 41021 ft 534 kts 45°
2026-05-05 03:14 23.61630 124.55115 41025 ft 534 kts 45°
2026-05-05 03:14 23.66516 124.61222 41021 ft 534 kts 45°
2026-05-05 03:15 23.71410 124.67349 41026 ft 535 kts 45°
2026-05-05 03:15 23.76294 124.73471 41033 ft 535 kts 45°
2026-05-05 03:16 23.81183 124.79608 41032 ft 535 kts 45°
2026-05-05 03:16 23.86070 124.85750 41019 ft 536 kts 45°
2026-05-05 03:17 23.90962 124.91905 41038 ft 536 kts 45°
2026-05-05 03:17 23.95852 124.98066 41028 ft 536 kts 45°
2026-05-05 03:18 24.00743 125.04235 41032 ft 537 kts 45°
2026-05-05 03:18 24.05602 125.10373 41035 ft 537 kts 45°
2026-05-05 03:19 24.12940 125.19655 41044 ft 537 kts 45°
2026-05-05 03:19 24.17835 125.25858 41046 ft 538 kts 45°
2026-05-05 03:20 24.22726 125.32063 41048 ft 538 kts 45°
2026-05-05 03:20 24.27621 125.38282 41051 ft 538 kts 45°
2026-05-05 03:21 24.32516 125.44508 41051 ft 538 kts 45°
2026-05-05 03:21 24.37375 125.50697 41057 ft 539 kts 45°
2026-05-05 03:22 24.42264 125.56930 41059 ft 539 kts 45°
2026-05-05 03:22 24.47158 125.63180 41060 ft 540 kts 45°
2026-05-05 03:23 24.52051 125.69437 41058 ft 540 kts 45°
2026-05-05 03:23 24.56946 125.75703 41063 ft 540 kts 45°
2026-05-05 03:24 24.61838 125.81974 41065 ft 541 kts 46°
2026-05-05 03:24 24.66738 125.88264 41068 ft 541 kts 46°
2026-05-05 03:25 24.71632 125.94554 41068 ft 541 kts 46°
2026-05-05 03:25 24.76528 126.00855 41070 ft 542 kts 46°
2026-05-05 03:26 24.81432 126.07176 41065 ft 542 kts 46°
2026-05-05 03:26 24.86326 126.13492 41067 ft 542 kts 46°
2026-05-05 03:27 24.91226 126.19823 41074 ft 543 kts 46°
2026-05-05 03:27 24.96086 126.26111 41078 ft 543 kts 46°
2026-05-05 03:28 25.00983 126.32455 41081 ft 543 kts 46°
2026-05-05 03:28 25.05878 126.38806 41081 ft 543 kts 46°
2026-05-05 03:29 25.10772 126.45163 41084 ft 544 kts 46°
2026-05-05 03:29 25.15669 126.51534 41085 ft 544 kts 46°
2026-05-05 03:30 25.20562 126.57908 41088 ft 545 kts 46°
2026-05-05 03:30 25.25463 126.64301 41093 ft 545 kts 46°
2026-05-05 03:31 25.30366 126.70706 41096 ft 545 kts 46°
2026-05-05 03:31 25.35230 126.77068 41096 ft 545 kts 46°
2026-05-05 03:32 25.40140 126.83498 41095 ft 546 kts 46°
2026-05-05 03:32 25.45040 126.89926 41097 ft 546 kts 46°
2026-05-05 03:33 25.49935 126.96356 41099 ft 547 kts 46°
2026-05-05 03:33 25.54835 127.02801 41103 ft 547 kts 46°
2026-05-05 03:34 25.59737 127.09256 41106 ft 547 kts 46°
2026-05-05 03:34 25.64684 127.15589 41106 ft 546 kts 44°
2026-05-05 03:35 25.69766 127.21859 41106 ft 546 kts 44°
2026-05-05 03:35 25.74846 127.28150 41119 ft 547 kts 44°
2026-05-05 03:36 25.79716 127.34233 41114 ft 547 kts 44°
2026-05-05 03:36 25.84764 127.40566 41108 ft 548 kts 45°
2026-05-05 03:37 25.89783 127.46875 41108 ft 548 kts 45°
2026-05-05 03:37 25.94835 127.53233 41110 ft 548 kts 45°
2026-05-05 03:38 25.99885 127.59595 41111 ft 549 kts 45°
2026-05-05 03:38 26.04936 127.65967 41107 ft 549 kts 45°
2026-05-05 03:39 26.09984 127.72343 41110 ft 550 kts 45°
2026-05-05 03:39 26.15055 127.78721 41108 ft 549 kts 42°
2026-05-05 03:40 26.20679 127.84379 41118 ft 544 kts 36°
2026-05-05 03:40 26.26461 127.89799 41126 ft 543 kts 35°
2026-05-05 03:41 26.32242 127.95164 41127 ft 544 kts 35°
2026-05-05 03:41 26.38058 128.00584 41127 ft 545 kts 35°
2026-05-05 03:42 26.43875 128.06030 41125 ft 545 kts 35°
2026-05-05 03:42 26.49679 128.11475 41124 ft 545 kts 35°
2026-05-05 03:43 26.55488 128.16932 41126 ft 546 kts 35°
2026-05-05 03:43 26.61304 128.22403 41125 ft 546 kts 35°
2026-05-05 03:44 26.67079 128.27841 41129 ft 546 kts 35°
2026-05-05 03:44 26.72900 128.33332 41118 ft 547 kts 35°
2026-05-05 03:45 26.78718 128.38827 41125 ft 548 kts 35°
2026-05-05 03:45 26.84545 128.44339 41117 ft 548 kts 35°
2026-05-05 03:46 26.90365 128.49852 41097 ft 547 kts 35°
2026-05-05 03:46 26.96140 128.55328 41114 ft 548 kts 35°
2026-05-05 03:47 27.01976 128.60871 41119 ft 549 kts 35°
2026-05-05 03:47 27.07830 128.66437 41119 ft 554 kts 35°
2026-05-05 03:48 27.13738 128.72060 41134 ft 559 kts 35°
2026-05-05 03:48 27.19688 128.77735 41129 ft 563 kts 35°
2026-05-05 03:49 27.25622 128.83405 41132 ft 565 kts 35°
2026-05-05 03:49 27.31592 128.89118 41131 ft 566 kts 35°
2026-05-05 03:50 27.37620 128.94895 41134 ft 567 kts 35°
2026-05-05 03:50 27.43620 129.00652 41135 ft 567 kts 35°
2026-05-05 03:51 27.49625 129.06422 41132 ft 568 kts 35°
2026-05-05 03:51 27.55265 129.12715 41137 ft 574 kts 45°
2026-05-05 03:52 27.60436 129.19602 41131 ft 576 kts 46°
2026-05-05 03:52 27.65535 129.26593 41131 ft 577 kts 47°
2026-05-05 03:53 27.70640 129.33600 41138 ft 577 kts 46°
2026-05-05 03:53 27.75714 129.40541 41130 ft 577 kts 46°
2026-05-05 03:54 27.80830 129.47534 41136 ft 577 kts 46°
2026-05-05 03:54 27.85115 129.53401 41136 ft 578 kts 46°
2026-05-05 03:55 27.90195 129.60367 41134 ft 578 kts 46°
2026-05-05 03:55 27.95304 129.67386 41142 ft 578 kts 47°
2026-05-05 03:56 28.00420 129.74427 41143 ft 578 kts 47°
2026-05-05 03:56 28.05522 129.81460 41144 ft 579 kts 47°
2026-05-05 03:57 28.10641 129.88528 41133 ft 580 kts 47°
2026-05-05 03:57 28.15757 129.95603 41133 ft 580 kts 47°
2026-05-05 03:58 28.20859 130.02672 41135 ft 580 kts 47°
2026-05-05 03:58 28.25931 130.09709 41134 ft 580 kts 47°
2026-05-05 03:59 28.31036 130.16805 41138 ft 580 kts 47°
2026-05-05 03:59 28.36136 130.23905 41141 ft 580 kts 47°
2026-05-05 04:00 28.41240 130.31023 41144 ft 581 kts 47°
2026-05-05 04:00 28.46335 130.38142 41142 ft 581 kts 47°
2026-05-05 04:01 28.51434 130.45276 41145 ft 581 kts 47°
2026-05-05 04:01 28.56535 130.52428 41143 ft 581 kts 47°
2026-05-05 04:02 28.61598 130.59536 41143 ft 582 kts 47°
2026-05-05 04:02 28.66690 130.66698 41145 ft 582 kts 47°
2026-05-05 04:03 28.71780 130.73869 41144 ft 582 kts 47°
2026-05-05 04:03 28.76876 130.81061 41145 ft 583 kts 47°
2026-05-05 04:04 28.81965 130.88256 41140 ft 583 kts 47°
2026-05-05 04:04 28.87064 130.95478 41144 ft 584 kts 47°
2026-05-05 04:05 28.92155 131.02700 41151 ft 584 kts 47°
2026-05-05 04:05 28.97218 131.09895 41144 ft 584 kts 47°
2026-05-05 04:06 29.02314 131.17150 41145 ft 584 kts 47°
2026-05-05 04:06 29.07402 131.24406 41142 ft 585 kts 47°
2026-05-05 04:07 29.12490 131.31675 41144 ft 585 kts 47°
2026-05-05 04:07 29.17568 131.38942 41144 ft 585 kts 47°
2026-05-05 04:08 29.22647 131.46225 41140 ft 585 kts 47°
2026-05-05 04:08 29.27721 131.53511 41145 ft 585 kts 47°
2026-05-05 04:09 29.32769 131.60774 41143 ft 586 kts 47°
2026-05-05 04:09 29.37838 131.68081 41144 ft 586 kts 47°
2026-05-05 04:10 29.42913 131.75408 41149 ft 586 kts 47°
2026-05-05 04:10 29.47983 131.82742 41143 ft 586 kts 48°
2026-05-05 04:11 29.53053 131.90089 41146 ft 586 kts 48°
2026-05-05 04:11 29.58096 131.97414 41146 ft 577 kts 48°
2026-05-05 04:12 29.63046 132.04620 41150 ft 570 kts 48°
2026-05-05 04:12 29.67972 132.11754 41150 ft 569 kts 47°
2026-05-05 04:13 29.72996 132.18776 41150 ft 569 kts 46°
2026-05-05 04:13 29.78044 132.25793 41145 ft 569 kts 46°
2026-05-05 04:14 29.83042 132.32792 41155 ft 569 kts 46°
2026-05-05 04:14 29.88063 132.39865 41149 ft 570 kts 47°
2026-05-05 04:15 29.93081 132.46952 41146 ft 570 kts 47°
2026-05-05 04:15 29.98092 132.54040 41148 ft 570 kts 47°
2026-05-05 04:16 30.03111 132.61150 41154 ft 570 kts 47°
2026-05-05 04:16 30.08088 132.68212 41162 ft 571 kts 47°
2026-05-05 04:17 30.13105 132.75343 41160 ft 571 kts 47°
2026-05-05 04:17 30.18108 132.82467 41162 ft 571 kts 47°
2026-05-05 04:18 30.23116 132.89612 41155 ft 572 kts 47°
2026-05-05 04:18 30.28118 132.96761 41163 ft 572 kts 47°
2026-05-05 04:19 30.33122 133.03926 41163 ft 572 kts 47°
2026-05-05 04:19 30.38093 133.11056 41163 ft 572 kts 47°
2026-05-05 04:20 30.43085 133.18228 41166 ft 572 kts 47°
2026-05-05 04:20 30.48086 133.25427 41170 ft 573 kts 47°
2026-05-05 04:21 30.53079 133.32628 41170 ft 573 kts 47°
2026-05-05 04:21 30.58072 133.39842 41172 ft 573 kts 47°
2026-05-05 04:22 30.63067 133.47072 41172 ft 574 kts 47°
2026-05-05 04:22 30.68056 133.54307 41182 ft 574 kts 47°
2026-05-05 04:23 30.73040 133.61548 41178 ft 574 kts 47°
2026-05-05 04:23 30.78028 133.68807 41183 ft 574 kts 47°
2026-05-05 04:24 30.82982 133.76036 41184 ft 574 kts 47°
2026-05-05 04:25 30.90456 133.86952 41183 ft 574 kts 47°
2026-05-05 04:25 30.95438 133.94240 41189 ft 574 kts 47°
2026-05-05 04:26 31.00406 134.01524 41193 ft 574 kts 47°
2026-05-05 04:26 31.05376 134.08828 41192 ft 574 kts 48°
2026-05-05 04:27 31.10306 134.16085 41192 ft 574 kts 48°
2026-05-05 04:27 31.15264 134.23398 41197 ft 574 kts 48°
2026-05-05 04:28 31.20222 134.30724 41196 ft 575 kts 48°
2026-05-05 04:28 31.25178 134.38061 41195 ft 575 kts 48°
2026-05-05 04:29 31.30131 134.45408 41192 ft 575 kts 48°
2026-05-05 04:29 31.35074 134.52754 41193 ft 575 kts 48°
2026-05-05 04:30 31.40027 134.60128 41197 ft 575 kts 48°
2026-05-05 04:30 31.44967 134.67498 41198 ft 575 kts 48°
2026-05-05 04:31 31.49898 134.74869 41196 ft 575 kts 48°
2026-05-05 04:31 31.54833 134.82258 41199 ft 575 kts 48°
2026-05-05 04:32 31.59734 134.89613 41207 ft 578 kts 48°
2026-05-05 04:32 31.64701 134.97075 41202 ft 581 kts 48°
2026-05-05 04:33 31.69676 135.04569 41199 ft 582 kts 48°
2026-05-05 04:33 31.74729 135.12000 41199 ft 580 kts 44°
2026-05-05 04:34 31.80125 135.18933 41198 ft 578 kts 41°
2026-05-05 04:34 31.85621 135.25840 41202 ft 578 kts 42°
2026-05-05 04:35 31.91052 135.32829 41199 ft 579 kts 43°
2026-05-05 04:35 31.96443 135.39884 41197 ft 579 kts 43°
2026-05-05 04:36 32.01834 135.46972 41198 ft 580 kts 43°
2026-05-05 04:36 32.07227 135.54069 41196 ft 580 kts 43°
2026-05-05 04:37 32.12574 135.61110 41196 ft 580 kts 43°
2026-05-05 04:37 32.17965 135.68221 41196 ft 581 kts 43°
2026-05-05 04:38 32.23356 135.75346 41199 ft 581 kts 43°
2026-05-05 04:38 32.28737 135.82473 41198 ft 581 kts 43°
2026-05-05 04:39 32.34123 135.89620 41200 ft 582 kts 43°
2026-05-05 04:39 32.39509 135.96781 41199 ft 582 kts 43°
2026-05-05 04:40 32.44861 136.03910 41199 ft 583 kts 43°
2026-05-05 04:40 32.50247 136.11091 41197 ft 583 kts 43°
2026-05-05 04:41 32.55640 136.18288 41199 ft 583 kts 44°
2026-05-05 04:41 32.60119 136.24279 41203 ft 583 kts 44°
2026-05-05 04:42 32.65503 136.31493 41207 ft 584 kts 44°
2026-05-05 04:42 32.70887 136.38723 41207 ft 584 kts 44°
2026-05-05 04:43 32.76270 136.45966 41211 ft 584 kts 44°
2026-05-05 04:43 32.81642 136.53210 41215 ft 585 kts 44°
2026-05-05 04:44 32.87024 136.60479 41208 ft 585 kts 44°
2026-05-05 04:44 32.92372 136.67718 41214 ft 585 kts 44°
2026-05-05 04:45 32.97755 136.75007 41215 ft 585 kts 44°
2026-05-05 04:45 33.03134 136.82306 41212 ft 585 kts 44°
2026-05-05 04:46 33.08466 136.89557 41210 ft 585 kts 44°
2026-05-05 04:46 33.13841 136.96880 41222 ft 586 kts 44°
2026-05-05 04:47 33.19211 137.04211 41212 ft 586 kts 44°
2026-05-05 04:47 33.24575 137.11553 41219 ft 586 kts 44°
2026-05-05 04:48 33.29924 137.18896 41219 ft 587 kts 44°
2026-05-05 04:48 33.35304 137.26283 41216 ft 587 kts 44°
2026-05-05 04:49 33.40623 137.33604 41212 ft 587 kts 44°
2026-05-05 04:49 33.45987 137.41005 41212 ft 587 kts 44°
2026-05-05 04:50 33.51335 137.48400 41212 ft 587 kts 44°
2026-05-05 04:50 33.54009 137.52103 41061 ft 587 kts 44°
2026-05-05 04:50 33.56675 137.55800 40820 ft 587 kts 44°
2026-05-05 04:50 33.59344 137.59522 40598 ft 589 kts 45°
2026-05-05 04:51 33.61732 137.63565 40361 ft 595 kts 57°
2026-05-05 04:51 33.63847 137.67836 40122 ft 597 kts 57°
2026-05-05 04:51 33.65900 137.72185 39857 ft 597 kts 59°
2026-05-05 04:51 33.67906 137.76558 39218 ft 599 kts 59°
2026-05-05 04:52 33.69899 137.80968 38478 ft 601 kts 59°
2026-05-05 04:52 33.71891 137.85391 37777 ft 601 kts 59°
2026-05-05 04:52 33.73879 137.89801 37231 ft 598 kts 59°
2026-05-05 04:52 33.75855 137.94173 36729 ft 594 kts 59°
2026-05-05 04:53 33.77827 137.98521 36224 ft 590 kts 59°
2026-05-05 04:53 33.79797 138.02857 35717 ft 587 kts 59°
2026-05-05 04:53 33.81720 138.07089 35223 ft 585 kts 58°
2026-05-05 04:53 33.83666 138.11374 34724 ft 582 kts 58°
2026-05-05 04:54 33.85603 138.15645 34225 ft 580 kts 58°
2026-05-05 04:54 33.87525 138.19889 33684 ft 577 kts 58°
2026-05-05 04:54 33.89441 138.24122 33195 ft 573 kts 59°
2026-05-05 04:54 33.91338 138.28323 32730 ft 569 kts 59°
2026-05-05 04:55 33.93224 138.32507 32246 ft 565 kts 59°
2026-05-05 04:55 33.95082 138.36670 31756 ft 562 kts 59°
2026-05-05 04:55 33.96921 138.40812 31299 ft 559 kts 60°
2026-05-05 04:55 33.98722 138.44877 30835 ft 556 kts 60°
2026-05-05 04:56 34.00537 138.48977 30368 ft 553 kts 60°
2026-05-05 04:56 34.02342 138.53053 29846 ft 550 kts 60°
2026-05-05 04:56 34.04138 138.57117 29363 ft 545 kts 60°
2026-05-05 04:56 34.05917 138.61144 28896 ft 541 kts 60°
2026-05-05 04:57 34.07678 138.65132 28442 ft 536 kts 60°
2026-05-05 04:57 34.09423 138.69088 27971 ft 532 kts 60°
2026-05-05 04:57 34.11157 138.73023 27499 ft 528 kts 60°
2026-05-05 04:57 34.12873 138.76920 27045 ft 524 kts 60°
2026-05-05 04:58 34.14577 138.80793 26584 ft 520 kts 60°
2026-05-05 04:58 34.16262 138.84627 26153 ft 515 kts 60°
2026-05-05 04:58 34.17931 138.88431 25698 ft 504 kts 60°
2026-05-05 04:58 34.19533 138.92092 25202 ft 484 kts 60°
2026-05-05 04:59 34.21075 138.95622 24775 ft 471 kts 59°
2026-05-05 04:59 34.22605 138.99112 24344 ft 470 kts 59°
2026-05-05 04:59 34.24133 139.02600 23903 ft 468 kts 59°
2026-05-05 04:59 34.25648 139.06064 23403 ft 465 kts 59°
2026-05-05 05:00 34.27153 139.09510 22950 ft 461 kts 59°
2026-05-05 05:00 34.28572 139.12962 22475 ft 457 kts 63°
2026-05-05 05:00 34.29861 139.16461 22069 ft 452 kts 65°
2026-05-05 05:00 34.31081 139.19930 21636 ft 444 kts 65°
2026-05-05 05:01 34.32243 139.23321 21207 ft 427 kts 66°
2026-05-05 05:01 34.33348 139.26579 20802 ft 413 kts 66°
2026-05-05 05:01 34.34435 139.29781 20395 ft 409 kts 65°
2026-05-05 05:01 34.35518 139.32957 19987 ft 406 kts 65°
2026-05-05 05:03 34.41927 139.51651 17476 ft 379 kts 65°
2026-05-05 05:03 34.42923 139.54566 17093 ft 373 kts 65°
2026-05-05 05:03 34.43910 139.57458 16715 ft 368 kts 65°
2026-05-05 05:04 34.44882 139.60309 16319 ft 363 kts 65°
2026-05-05 05:04 34.45840 139.63117 15922 ft 358 kts 65°
2026-05-05 05:04 34.46785 139.65891 15569 ft 354 kts 64°
2026-05-05 05:04 34.47722 139.68623 15193 ft 348 kts 64°
2026-05-05 05:05 34.48940 139.71115 14833 ft 338 kts 47°
2026-05-05 05:05 34.50638 139.73011 14486 ft 330 kts 31°
2026-05-05 05:05 34.52546 139.74519 14122 ft 325 kts 28°
2026-05-05 05:05 34.54477 139.75954 13634 ft 325 kts 28°
2026-05-05 05:06 34.56382 139.77359 13361 ft 311 kts 28°
2026-05-05 05:06 34.58172 139.78683 13203 ft 292 kts 28°
2026-05-05 05:06 34.59856 139.79927 13062 ft 276 kts 27°
2026-05-05 05:06 34.61452 139.81102 12930 ft 268 kts 27°
2026-05-05 05:07 34.63034 139.82265 12729 ft 264 kts 27°
2026-05-05 05:07 34.64596 139.83412 12486 ft 261 kts 27°
2026-05-05 05:07 34.66146 139.84553 12240 ft 259 kts 27°
2026-05-05 05:07 34.67615 139.85827 11974 ft 261 kts 40°
2026-05-05 05:08 34.68719 139.87599 11838 ft 270 kts 55°
2026-05-05 05:08 34.69692 139.89600 11584 ft 278 kts 57°
2026-05-05 05:08 34.70655 139.91632 11343 ft 277 kts 57°
2026-05-05 05:08 34.71621 139.93658 11146 ft 276 kts 56°
2026-05-05 05:09 34.72270 139.95012 11019 ft 275 kts 56°
2026-05-05 05:09 34.73223 139.96993 10756 ft 275 kts 57°
2026-05-05 05:09 34.74186 139.98994 10466 ft 272 kts 56°
2026-05-05 05:09 34.75138 140.00969 10186 ft 269 kts 56°
2026-05-05 05:10 34.76082 140.02927 9842 ft 268 kts 56°
2026-05-05 05:10 34.77021 140.04875 9486 ft 266 kts 57°
2026-05-05 05:10 34.77955 140.06810 9129 ft 264 kts 57°
2026-05-05 05:10 34.78887 140.08741 8777 ft 263 kts 57°
2026-05-05 05:11 34.79809 140.10655 8433 ft 262 kts 57°
2026-05-05 05:11 34.80722 140.12558 8176 ft 257 kts 57°
2026-05-05 05:11 34.81611 140.14419 7956 ft 251 kts 57°
2026-05-05 05:11 34.82488 140.16244 7674 ft 249 kts 57°
2026-05-05 05:12 34.83360 140.18053 7535 ft 247 kts 57°
2026-05-05 05:12 34.84232 140.19863 7409 ft 247 kts 57°
2026-05-05 05:12 34.85101 140.21675 7289 ft 247 kts 57°
2026-05-05 05:12 34.86093 140.23367 7160 ft 245 kts 43°
2026-05-05 05:13 34.87508 140.24480 7052 ft 245 kts 17°
2026-05-05 05:13 34.89193 140.24759 6965 ft 246 kts 357°
2026-05-05 05:13 34.90909 140.24666 6876 ft 248 kts 355°
2026-05-05 05:13 34.92633 140.24540 6810 ft 248 kts 355°
2026-05-05 05:14 34.94359 140.24424 6736 ft 249 kts 355°
2026-05-05 05:14 34.96061 140.24319 6663 ft 248 kts 356°
2026-05-05 05:14 34.97792 140.24218 6589 ft 249 kts 356°
2026-05-05 05:14 34.99520 140.24121 6509 ft 249 kts 356°
2026-05-05 05:15 35.01250 140.24025 6434 ft 248 kts 356°
2026-05-05 05:15 35.02965 140.23930 6350 ft 242 kts 356°
2026-05-05 05:15 35.04608 140.23841 6261 ft 230 kts 356°
2026-05-05 05:15 35.06183 140.23756 6170 ft 225 kts 356°
2026-05-05 05:16 35.07745 140.23670 6097 ft 224 kts 355°
2026-05-05 05:16 35.09302 140.23582 6015 ft 224 kts 356°
2026-05-05 05:16 35.10863 140.23496 5947 ft 224 kts 356°
2026-05-05 05:16 35.12422 140.23410 5873 ft 224 kts 356°
2026-05-05 05:17 35.13972 140.23324 5801 ft 224 kts 355°
2026-05-05 05:17 35.15523 140.23235 5724 ft 224 kts 356°
2026-05-05 05:17 35.17077 140.23166 5605 ft 224 kts 358°
2026-05-05 05:17 35.18629 140.23095 5530 ft 222 kts 355°
2026-05-05 05:18 35.20166 140.22989 5469 ft 219 kts 355°
2026-05-05 05:18 35.21672 140.22892 5367 ft 214 kts 356°
2026-05-05 05:18 35.23138 140.22827 5296 ft 210 kts 357°
2026-05-05 05:18 35.24595 140.22759 5214 ft 210 kts 356°
2026-05-05 05:19 35.26059 140.22669 5089 ft 210 kts 355°
2026-05-05 05:19 35.27518 140.22584 4999 ft 210 kts 355°
2026-05-05 05:19 35.28980 140.22496 4961 ft 210 kts 356°
2026-05-05 05:19 35.30447 140.22416 4970 ft 211 kts 355°
2026-05-05 05:20 35.31914 140.22335 4985 ft 212 kts 355°
2026-05-05 05:20 35.33386 140.22245 4982 ft 212 kts 355°
2026-05-05 05:20 35.34857 140.22159 4982 ft 212 kts 356°
2026-05-05 05:20 35.36336 140.22073 4981 ft 212 kts 356°
2026-05-05 05:21 35.37803 140.21915 4967 ft 213 kts 350°
2026-05-05 05:21 35.39260 140.21625 4940 ft 212 kts 348°
2026-05-05 05:21 35.40634 140.21326 4840 ft 213 kts 348°
2026-05-05 05:21 35.41742 140.21085 4724 ft 213 kts 349°
2026-05-05 05:22 35.43198 140.20771 4606 ft 213 kts 349°
2026-05-05 05:22 35.44660 140.20462 4458 ft 212 kts 349°
2026-05-05 05:22 35.46100 140.20151 4332 ft 213 kts 349°
2026-05-05 05:22 35.47557 140.19837 4201 ft 213 kts 349°
2026-05-05 05:23 35.49019 140.19521 4073 ft 213 kts 349°
2026-05-05 05:23 35.50480 140.19206 3977 ft 213 kts 349°
2026-05-05 05:23 35.51934 140.18892 3959 ft 213 kts 349°
2026-05-05 05:23 35.53396 140.18568 3954 ft 213 kts 349°
2026-05-05 05:24 35.54821 140.18254 3948 ft 205 kts 349°
2026-05-05 05:24 35.56216 140.17949 3984 ft 201 kts 349°
2026-05-05 05:24 35.57595 140.17647 3961 ft 202 kts 349°
2026-05-05 05:24 35.58984 140.17344 3949 ft 203 kts 349°
2026-05-05 05:25 35.60378 140.17037 3950 ft 204 kts 349°
2026-05-05 05:25 35.61775 140.16734 3951 ft 204 kts 349°
2026-05-05 05:25 35.63175 140.16434 4289 ft 205 kts 343°
2026-05-05 05:25 35.64604 140.16133 4091 ft 210 kts 341°
2026-05-05 05:26 35.66032 140.15804 3951 ft 205 kts 340°
2026-05-05 05:26 35.67328 140.15201 3940 ft 194 kts 320°
2026-05-05 05:26 35.68333 140.14196 3946 ft 185 kts 308°
2026-05-05 05:26 35.69230 140.13087 3944 ft 182 kts 306°
2026-05-05 05:27 35.70117 140.11968 3950 ft 184 kts 306°
2026-05-05 05:27 35.71011 140.10837 3944 ft 185 kts 306°
2026-05-05 05:27 35.72772 140.08525 3943 ft 183 kts 298°
2026-05-05 05:28 35.73231 140.07122 3962 ft 174 kts 273°
2026-05-05 05:28 35.73036 140.05715 3961 ft 168 kts 238°
2026-05-05 05:28 35.72347 140.04562 3954 ft 167 kts 229°
2026-05-05 05:28 35.71554 140.03510 3956 ft 168 kts 227°
2026-05-05 05:29 35.70758 140.02490 3978 ft 163 kts 227°
2026-05-05 05:29 35.69991 140.01492 4016 ft 160 kts 227°
2026-05-05 05:29 35.69194 140.00517 4072 ft 163 kts 226°
2026-05-05 05:29 35.68379 139.99534 4130 ft 164 kts 226°
2026-05-05 05:30 35.67574 139.98551 4121 ft 157 kts 226°
2026-05-05 05:30 35.66843 139.97660 3912 ft 142 kts 226°
2026-05-05 05:30 35.66168 139.96840 3719 ft 131 kts 226°
2026-05-05 05:30 35.65537 139.96073 3542 ft 127 kts 226°
2026-05-05 05:31 35.64908 139.95309 3378 ft 126 kts 226°
2026-05-05 05:31 35.64287 139.94544 3186 ft 126 kts 226°
2026-05-05 05:31 35.63711 139.93734 3025 ft 126 kts 230°
2026-05-05 05:31 35.63174 139.92889 2868 ft 126 kts 231°
2026-05-05 05:32 35.62642 139.92035 2731 ft 125 kts 229°
2026-05-05 05:32 35.62079 139.91213 2556 ft 126 kts 227°
2026-05-05 05:32 35.61493 139.90421 2341 ft 125 kts 224°
2026-05-05 05:32 35.60865 139.89682 2109 ft 125 kts 220°
2026-05-05 05:33 35.60203 139.88999 1862 ft 124 kts 217°
2026-05-05 05:33 35.59541 139.88317 1675 ft 125 kts 218°
2026-05-05 05:33 35.58897 139.87602 1571 ft 124 kts 220°
2026-05-05 05:33 35.58255 139.86864 1501 ft 126 kts 219°
2026-05-05 05:34 35.57608 139.86153 1393 ft 127 kts 219°
2026-05-05 05:34 35.56951 139.85426 1028 ft 127 kts 218°
2026-05-05 05:34 35.56291 139.84690 682 ft 130 kts 219°
2026-05-05 05:34 35.55608 139.83924 429 ft 137 kts 221°
2026-05-05 05:35 35.54887 139.83116 241 ft 142 kts 220°
2026-05-05 05:35 35.54153 139.82303 85 ft 143 kts 219°
2026-05-05 05:35 35.53436 139.81506 30 ft 129 kts 221°
2026-05-05 05:35 35.52944 139.80950 28 ft 55 kts 222°
2026-05-05 05:36 35.52786 139.80738 30 ft 31 kts 237°
2026-05-05 05:36 35.52702 139.80515 30 ft 22 kts 248°
2026-05-05 05:36 35.52725 139.80349 30 ft 18 kts 315°
2026-05-05 05:36 35.52823 139.80367 30 ft 16 kts 42°
2026-05-05 05:37 35.52911 139.80467 30 ft 18 kts 43°
2026-05-05 05:37 35.53009 139.80522 30 ft 13 kts 345°
2026-05-05 05:37 35.53087 139.80465 30 ft 14 kts 329°
2026-05-05 05:37 35.53184 139.80395 30 ft 18 kts 329°
2026-05-05 05:38 35.53300 139.80315 30 ft 20 kts 331°
2026-05-05 05:38 35.53431 139.80223 30 ft 23 kts 329°
2026-05-05 05:38 35.53576 139.80120 30 ft 25 kts 330°
2026-05-05 05:38 35.53707 139.79998 30 ft 21 kts 288°
2026-05-05 05:39 35.53662 139.79860 30 ft 19 kts 240°
2026-05-05 05:39 35.53592 139.79714 30 ft 21 kts 241°
2026-05-05 05:39 35.53516 139.79550 28 ft 23 kts 240°
2026-05-05 05:39 35.53431 139.79371 30 ft 24 kts 238°
2026-05-05 05:40 35.53377 139.79205 30 ft 17 kts 280°
2026-05-05 05:40 35.53439 139.79106 29 ft 12 kts 334°
2026-05-05 05:40 35.53518 139.79053 29 ft 14 kts 330°
2026-05-05 05:40 35.53611 139.78988 29 ft 17 kts 330°
2026-05-05 05:41 35.53718 139.78911 29 ft 19 kts 330°
2026-05-05 05:41 35.53838 139.78822 29 ft 21 kts 329°
2026-05-05 05:41 35.53972 139.78726 29 ft 23 kts 329°
2026-05-05 05:41 35.54099 139.78636 29 ft 18 kts 329°
2026-05-05 05:42 35.54175 139.78548 29 ft 14 kts 277°
2026-05-05 05:42 35.54131 139.78436 29 ft 15 kts 240°
2026-05-05 05:42 35.54074 139.78314 29 ft 18 kts 240°
2026-05-05 05:42 35.54009 139.78174 29 ft 20 kts 240°
2026-05-05 05:43 35.53946 139.78029 29 ft 15 kts 258°
2026-05-05 05:43 35.53975 139.77960 29 ft 7 kts 319°
2026-05-05 05:43 35.54018 139.77929 29 ft 9 kts 330°
2026-05-05 05:43 35.54087 139.77881 29 ft 13 kts 330°
2026-05-05 05:44 35.54173 139.77819 29 ft 16 kts 329°
2026-05-05 05:44 35.54275 139.77747 29 ft 18 kts 330°
2026-05-05 05:44 35.54391 139.77664 29 ft 19 kts 329°
2026-05-05 05:44 35.54429 139.77532 29 ft 18 kts 246°
2026-05-05 05:45 35.54362 139.77391 29 ft 20 kts 239°
2026-05-05 05:45 35.54297 139.77286 29 ft 12 kts 234°
2026-05-05 05:45 35.54271 139.77230 29 ft 6 kts 241°
2026-05-05 05:45 35.54262 139.77211 29 ft 0 kts 240°